Погода в Саравене

Колумбия     6°57′12″N   71°52′24″W
темп.,
°C
ветер,
м/с
пор.,
м/с
влажн.,
%
обл.,
%
осадки,
мм/ч
давл.,
гПа
погр.,
м
27 января, ср
ср2701:00+21сз1277100 0.0 101330
04:00+21зсз2474100 0.0 101391
07:00+23зсз236799 0.0 1015116
10:00+29ссв345090 0.0 1015859
13:00+32ссв234180 0.0 10122054
16:00+32с123978 0.0 10102116
19:00+26сз116270 0.0 101125
22:00+23зсз22743 0.0 101346
28 января, чт
чт2801:00+21сз127641 0.0 101240
04:00+21сз227495 0.0 101272
07:00+22зсз246579 0.0 1014115
10:00+30св344425 0.0 1015966
13:00+32ссв233854 0.0 10112090
16:00+33ссв23327 0.0 10092322
19:00+26ссз12553 0.0 101126
22:00+22сз12680 0.0 101324
29 января, пт
пт2901:00+22зсз226836 0.0 101249
04:00+21сз1267100 0.0 101125
07:00+23ссв116498 0.0 101372
10:00+28сз135198 0.0 1014618
13:00+34ссв123586 0.0 10101997
16:00+34ссв2332100 0.0 10082390
19:00+25ссв115467 0.0 100924
22:00+22зсз126658 0.0 101224
30 января, сб
сб3001:00+21зсз127052 0.0 101145
04:00+20зсз226499 0.0 101156
07:00+22сз135593 0.0 1014107
10:00+31св233660 0.0 10141263
13:00+34св333037 0.0 10112376
16:00+34св222760 0.0 10092391
19:00+25в115378 0.0 101124
22:00+23зсз1259100 0.0 101329
31 января, вс
вс3101:00+22зсз1263100 0.0 101333
04:00+21зсз2264100 0.0 101361
07:00+22ссз1261100 0.0 101579
10:00+30ссв234093 0.0 10151033
13:00+35ссв232895 0.0 10112324
16:00+34св2331100 0.0 10082414
19:00+26всв1153100 0.0 101025
22:00+24зсз126098 0.0 101325